Regional Weather Roundup
Issued by NWS Grand Forks, ND

Home | Current Version | Previous Version | Text Only | Print | Product List | Glossary Off
Versions: 1 2 3 4 5 6 7 8 9 10 11 12 13 14 15 16 17 18 19 20 21 22 23 24 25 26 27 28 29 30 31 32 33 34 35 36 37 38 39 40 41 42 43 44 45 46 47 48 49 50

000
ASUS43 KFGF 240310
RWRFGF
PRAIRIE TO PINES  WEATHER ROUNDUP
NATIONAL WEATHER SERVICE EASTERN NORTH DAKOTA/GRAND FORKS ND
1000 PM CDT WED JUL 23 2014

 **SATELLITE DATA USED TO AUGMENT SKY COVER AT AUTOMATED STATIONS**
 *****  WEATHER ACROSS EASTERN NORTH DAKOTA  *****

CITY           SKY/WX    TMP DP  RH WIND       PRES   REMARKS
GRAND FORKS    PTCLDY    65  60  84 N3        30.17S
GRAND FRKS AFB PTCLDY    65  59  79 NE3       30.19S
GRAND FRKS NWS   N/A     64 N/A N/A MISG        N/A
DEVILS LAKE    CLEAR     66  57  72 E10       30.17R
FARGO          CLEAR     68  59  73 E5        30.17S
WAHPETON ARPT  FAIR      68  57  68 E3        30.17S
$$

 ***** WEATHER ACROSS CENTRAL AND WESTERN NORTH DAKOTA  *****

CITY           SKY/WX    TMP DP  RH WIND       PRES   REMARKS
BISMARCK       CLEAR     71  60  68 SE10      30.10S
MINOT          CLEAR     69  63  81 E10       30.10F
JAMESTOWN      CLEAR     68  60  75 SE7       30.16S
MINOT AFB      CLEAR     69  67  96 E13       30.10S
GARRISON         N/A     72  65  78 SE9       30.09F
WILLISTON      MOCLDY    78  63  59 E14       30.01F
DICKINSON      CLEAR     69  60  73 SE12      30.05S
HETTINGER      CLEAR     72  56  57 E14       30.07S
$$

 *****  OTHER AIRPORT OBSERVATIONS IN OUR AREA  *****

CITY           SKY/WX    TMP DP  RH WIND       PRES   REMARKS
WALHALLA         N/A     59  59 100 CALM        N/A
GRAFTON AIRPOR FAIR      63  57  82 CALM      30.18S
VALLEY CITY AR FAIR      66  66 100 E6        30.18S
CANDO          MOCLDY    64  59  82 E10       30.18S
CAVALIER APRT  FAIR      63  57  82 CALM      30.19R
GWINNER        CLEAR     68  63  83 E6        30.18S
SHEYENNE NWR     N/A     65  60  85 E6        29.95
ROLLA          MOCLDY    64  63  94 E9        30.19F
 ***** THE ABOVE OBSERVATIONS ARE NON NWS ARE NOT QUALITY
       CONTROLLED AND MAY MIS-REPORT RAIN FOR SNOW...
$$

  *****  WEATHER ACROSS NORTHERN MINNESOTA  *****

CITY           SKY/WX    TMP DP  RH WIND       PRES   REMARKS
FLAG ISLAND    CLEAR     68  48  49 CALM      30.19S
WARROAD        NOT AVBL
ROSEAU         PTCLDY    61  54  77 E6        30.20S
HALLOCK        CLEAR     64  55  72 CALM      30.18S
THF RVR FALLS  CLEAR     64  55  72 CALM      30.20R
BAUDETTE       CLEAR     61  54  77 CALM      30.21R
WASKISH        PTCLDY    61  55  82 CALM      30.20R
CROOKSTON      CLEAR     66  57  72 CALM      30.19S
$$
  *****  WEATHER ACROSS CENTRAL AND WEST MINNESOTA  *****

CITY           SKY/WX    TMP DP  RH WIND       PRES   REMARKS
FOSSTON        CLEAR     61  55  82 NW3       30.20S
BEMIDJI        CLEAR     61  55  80 NW3       30.19S
PARK RAPIDS    CLEAR     64  57  78 CALM      30.19F
ELBOW LAKE     FAIR      69  58  69 NE6       30.18S
WADENA         CLEAR     61  55  82 CALM      30.19S
DETROIT LAKES  CLEAR     68  59  73 CALM      30.21S
MOORHEAD       CLEAR     66  64  94 E5        30.18S
FERGUS FALLS   CLEAR     68  55  64 E3        30.18R
MORRIS MN      CLEAR     66  57  72 CALM      30.18R
STAPLES        CLEAR     64  57  77 CALM      30.19S
$$
  *****  WEATHER ELSEWHERE ACROSS MINNESOTA  *****

CITY           SKY/WX    TMP DP  RH WIND       PRES   REMARKS
DULUTH         PTCLDY    62  55  77 E3        30.19S
INTRNTL FALLS  CLEAR     54  53  97 CALM      30.19S
ELY            CLEAR     55  52  88 CALM      30.21R
CLOQUET        CLEAR     61  54  77 CALM      30.19S
WHEATON        CLEAR     64  61  88 E3        30.18F
BRAINERD       CLEAR     63  57  81 CALM      30.19S
HIBBING        CLEAR     56  52  86 CALM      30.20S
ALEXANDRIA     CLEAR     68  57  68 NE6       30.20S
SAINT CLOUD    CLEAR     63  56  78 CALM      30.17S
MINNEAPOLIS    CLEAR     71  52  50 N6        30.16S
$$

  *****  WEATHER ACROSS SOUTH DAKOTA  *****

CITY           SKY/WX    TMP DP  RH WIND       PRES   REMARKS
SIOUX FALLS    PTCLDY    70  58  65 E6        30.17S
BROOKINGS      NOT AVBL
WATERTOWN      CLEAR     70  54  56 E5        30.18S
HURON          CLEAR     71  56  58 SE9       30.14R
SISSETON         N/A     66  61  84 SE3       30.16S
ABERDEEN       CLEAR     68  59  73 E7        30.15S
MITCHELL       CLEAR     71  59  65 SE9       30.15S
PIERRE         PTCLDY    74  57  55 SE12      30.07S
MOBRIDGE       CLEAR     72  57  59 SE12      30.08F
RAPID CITY     MOCLDY    74  66  76 S6        30.05F
$$

  *****  SOME WEATHER IN NEARBY STATES *****

CITY           SKY/WX    TMP DP  RH WIND       PRES   REMARKS
GLASGOW MT     PTCLDY    85  63  47 E17       29.87F
GREAT FALLS MT MOCLDY    82  52  35 SE9       29.88R
CHEYENNE WY    CLOUDY    75  47  36 SW18G26   30.28S
SCOTTSBLUFF NE MOCLDY    82  67  60 E9        30.09F
OMAHA NE       PTCLDY    75  62  64 E6        30.15R
DES MOINES IA  CLEAR     74  57  55 E6        30.15R
DAVENPORT IA   CLEAR     69  57  65 N5        30.15R
CHICAGO IL     PTCLDY    62  49  62 N12       30.13S
EAU CLAIRE WI  CLEAR     65  57  75 NE5       30.16S
LA CROSSE WI   PTCLDY    71  59  65 NW3       30.14S
$$

  *****  SOME NATIONAL WEATHER *****

CITY           SKY/WX    TMP DP  RH WIND       PRES   REMARKS
LA GUARDIA NY  LGT RAIN  79  70  74 W8        29.81F
RALEIGH NC     PTCLDY    76  70  82 SW6       29.93F
ATLANTA GA     PTCLDY    77  70  79 W5        30.01R
NEW ORLEANS LA MOCLDY    78  72  81 S5        30.01F
OKLAHOMA CITY  CLOUDY    83  76  79 SE10      30.10R HX  91
ALBUQUERQUE NM PTCLDY    80  57  45 N9        30.28R
SALT LAKE CITY MOCLDY    92  42  17 S16       29.93S
LOS ANGELES CA PTCLDY    72  60  66 W16G23    29.87F
BOISE ID       CLEAR     89  42  19 W7        29.88S
SEATTLE WA     MOCLDY    62  54  74 S9        30.05S
$$

*** WEATHER ACROSS MANITOBA...SASKATCHEWAN AND ONTARIO ***
                ***ONTARIO***

CITY           SKY/WX    TMP DP  RH WIND       PRES   REMARKS
GERALDTON      PTCLDY    59  50  72 W5        30.10F
THUNDER BAY    PTCLDY    55  52  88 W3        30.16F
SIOUX LOOKOUT  CLEAR     52  48  87 SW2       30.18S
TORONTO        CLEAR     63  52  67 NW8       30.02R
BIG TROUT LK   PTCLDY    59  55  88 NW7       30.02S
PICKLE LAKE    NOT AVBL
DRYDEN         CLEAR     63  50  63 W6        30.19S
KENORA         PTCLDY    64  48  55 VRB2      30.21S
$$
                *** MANITOBA***

CITY           SKY/WX    TMP DP  RH WIND       PRES   REMARKS
BRANDON        MOCLDY    61  57  88 E7        30.17F
DAUPHIN        CLEAR     61  52  72 SE8       30.16R
ISLAND LAKE    PTCLDY    64  54  68 W2        30.09F
PILOT MOUND      N/A     59  55  88 E6          N/A
THE PAS        PTCLDY    68  55  64 SE6       30.09F
THOMPSON       PTCLDY    63  55  77 W3        30.05S
WINNIPEG       PTCLDY    66  48  52 E5        30.19F
LYNN LAKE      CLEAR     66  54  63 W2        30.06S
CHURCHILL      PTCLDY    64  52  63 E3        30.00F
GILLAM         MOCLDY    64  55  72 SE6       30.02S SMOKE
$$
                ***SASKATCHEWAN***

CITY           SKY/WX    TMP DP  RH WIND       PRES   REMARKS
ESTEVAN        PTCLDY    68  63  83 E12       30.09F
KINDERSLEY     TSTM      66  59  77 SE16G24   29.91F
LLOYDMINSTER   MOCLDY    68  64  88 SE15      29.91F
PRINCE ALBERT  MOCLDY    68  59  73 E7        30.03F
REGINA         CLOUDY    72  63  73 SE17G26   30.04F
YORKTON        MOCLDY    64  57  77 E8        30.12F
N. BATTLEFORD  LGT RAIN  68  63  83 SE14      29.98F
LA RONGE       NOT AVBL
SASKATOON      CLOUDY    72  61  68 SE17G23   30.01F
SWIFT CURRENT  PTCLDY    72  64  78 SE20      29.93F
$$
NOTE: THESE ARE AUTOMATED STATIONS WITH LIMITED QUALITY CONTROL
      "FAIR" INDICATES FEW OR NO CLOUDS BELOW 12,000 FEET WITH NO
      SIGNIFICANT WEATHER AND/OR OBSTRUCTIONS TO VISIBILITY.
      SKY/WX - SKY CONDITION AND SIGNIFICANT WEATHER.
      TMP - AIR TEMPERATURE.    DP   - DEWPOINT TEMPERATURE.
      RH  - RELATIVE HUMIDITY.  PRES - PRESSURE.
      HX  - HEAT INDEX.         WCI  - WIND CHILL INDEX.
$


USA.gov is the U.S. government's official web portal to all federal, state and local government web resources and services.